Year,Month,Day,Hour,Minute,Value (Times are PST for temperature in C)
2010,07,25,00,00,14.80
2010,07,25,00,01,14.70
2010,07,25,00,02,14.70
2010,07,25,00,03,14.70
2010,07,25,00,04,14.70
2010,07,25,00,05,14.70
2010,07,25,00,06,14.70
2010,07,25,00,07,14.70
2010,07,25,00,08,14.70
2010,07,25,00,09,14.80
2010,07,25,00,10,14.80
2010,07,25,00,11,14.80
2010,07,25,00,12,14.80
2010,07,25,00,13,14.80
2010,07,25,00,14,14.80
2010,07,25,00,15,14.80
2010,07,25,00,16,14.80
2010,07,25,00,17,14.80
2010,07,25,00,18,14.80
2010,07,25,00,19,14.80
2010,07,25,00,20,14.80
2010,07,25,00,21,14.80
2010,07,25,00,22,14.80
2010,07,25,00,23,14.80
2010,07,25,00,24,14.80
2010,07,25,00,25,14.80
2010,07,25,00,26,14.80
2010,07,25,00,27,14.80
2010,07,25,00,28,14.80
2010,07,25,00,29,14.70
2010,07,25,00,30,14.70
2010,07,25,00,31,14.60
2010,07,25,00,32,14.60
2010,07,25,00,33,14.60
2010,07,25,00,34,14.60
2010,07,25,00,35,14.50
2010,07,25,00,36,14.50
2010,07,25,00,37,14.40
2010,07,25,00,38,14.40
2010,07,25,00,39,14.40
2010,07,25,00,40,14.40
2010,07,25,00,41,14.40
2010,07,25,00,42,14.40
2010,07,25,00,43,14.40
2010,07,25,00,44,14.40
2010,07,25,00,45,14.40
2010,07,25,00,46,14.40
2010,07,25,00,47,14.40
2010,07,25,00,48,14.40
2010,07,25,00,49,14.40
2010,07,25,00,50,14.40
2010,07,25,00,51,14.40
2010,07,25,00,52,14.40
2010,07,25,00,53,14.40
2010,07,25,00,54,14.40
2010,07,25,00,55,14.40
2010,07,25,00,56,14.40
2010,07,25,00,57,14.40
2010,07,25,00,58,14.40
2010,07,25,00,59,14.40
2010,07,25,01,00,14.40
2010,07,25,01,01,14.40
2010,07,25,01,02,14.40
2010,07,25,01,03,14.40
2010,07,25,01,04,14.40
2010,07,25,01,05,14.40
2010,07,25,01,06,14.40
2010,07,25,01,07,14.40
2010,07,25,01,08,14.40
2010,07,25,01,09,14.40
2010,07,25,01,10,14.30
2010,07,25,01,11,14.40
2010,07,25,01,12,14.30
2010,07,25,01,13,14.30
2010,07,25,01,14,14.30
2010,07,25,01,15,14.30
2010,07,25,01,16,14.30
2010,07,25,01,17,14.30
2010,07,25,01,18,14.30
2010,07,25,01,19,14.30
2010,07,25,01,20,14.30
2010,07,25,01,21,14.30
2010,07,25,01,22,14.30
2010,07,25,01,23,14.30
2010,07,25,01,24,14.30
2010,07,25,01,25,14.30
2010,07,25,01,26,14.20
2010,07,25,01,27,14.20
2010,07,25,01,28,14.20
2010,07,25,01,29,14.20
2010,07,25,01,30,14.20
2010,07,25,01,31,14.20
2010,07,25,01,32,14.20
2010,07,25,01,33,14.20
2010,07,25,01,34,14.20
2010,07,25,01,35,14.20
2010,07,25,01,36,14.20
2010,07,25,01,37,14.20
2010,07,25,01,38,14.20
2010,07,25,01,39,14.20
2010,07,25,01,40,14.20
2010,07,25,01,41,14.20
2010,07,25,01,42,14.10
2010,07,25,01,43,14.10
2010,07,25,01,44,14.10
2010,07,25,01,45,14.10
2010,07,25,01,46,14.10
2010,07,25,01,47,14.10
2010,07,25,01,48,14.10
2010,07,25,01,49,14.10
2010,07,25,01,50,14.00
2010,07,25,01,51,14.00
2010,07,25,01,52,14.00
2010,07,25,01,53,14.00
2010,07,25,01,54,14.00
2010,07,25,01,55,13.90
2010,07,25,01,56,13.90
2010,07,25,01,57,13.90
2010,07,25,01,58,13.90
2010,07,25,01,59,13.90
2010,07,25,02,00,13.90
2010,07,25,02,01,13.90
2010,07,25,02,02,13.90
2010,07,25,02,03,13.90
2010,07,25,02,04,13.90
2010,07,25,02,05,13.80
2010,07,25,02,06,13.80
2010,07,25,02,07,13.80
2010,07,25,02,08,13.80
2010,07,25,02,09,13.80
2010,07,25,02,10,13.70
2010,07,25,02,11,13.70
2010,07,25,02,12,13.70
2010,07,25,02,13,13.70
2010,07,25,02,14,13.70
2010,07,25,02,15,13.70
2010,07,25,02,16,13.60
2010,07,25,02,17,13.60
2010,07,25,02,18,13.60
2010,07,25,02,19,13.60
2010,07,25,02,20,13.60
2010,07,25,02,21,13.60
2010,07,25,02,22,13.60
2010,07,25,02,23,13.60
2010,07,25,02,24,13.50
2010,07,25,02,25,13.60
2010,07,25,02,26,13.50
2010,07,25,02,27,13.50
2010,07,25,02,28,13.50
2010,07,25,02,29,13.50
2010,07,25,02,30,13.50
2010,07,25,02,31,13.40
2010,07,25,02,32,13.40
2010,07,25,02,33,13.40
2010,07,25,02,34,13.50
2010,07,25,02,35,13.50
2010,07,25,02,36,13.50
2010,07,25,02,37,13.40
2010,07,25,02,38,13.40
2010,07,25,02,39,13.40
2010,07,25,02,40,13.40
2010,07,25,02,41,13.40
2010,07,25,02,42,13.40
2010,07,25,02,43,13.40
2010,07,25,02,44,13.40
2010,07,25,02,45,13.40
2010,07,25,02,46,13.40
2010,07,25,02,47,13.40
2010,07,25,02,48,13.40
2010,07,25,02,49,13.40
2010,07,25,02,50,13.30
2010,07,25,02,51,13.30
2010,07,25,02,52,13.30
2010,07,25,02,53,13.30
2010,07,25,02,54,13.30
2010,07,25,02,55,13.30
2010,07,25,02,56,13.30
2010,07,25,02,57,13.20
2010,07,25,02,58,13.20
2010,07,25,02,59,13.20
2010,07,25,03,00,13.20
2010,07,25,03,01,13.20
2010,07,25,03,02,13.20
2010,07,25,03,03,13.20
2010,07,25,03,04,13.20
2010,07,25,03,05,13.20
2010,07,25,03,06,13.10
2010,07,25,03,07,13.10
2010,07,25,03,08,13.10
2010,07,25,03,09,13.10
2010,07,25,03,10,13.00
2010,07,25,03,11,13.00
2010,07,25,03,12,13.00
2010,07,25,03,13,12.90
2010,07,25,03,14,12.90
2010,07,25,03,15,12.90
2010,07,25,03,16,12.90
2010,07,25,03,17,12.90
2010,07,25,03,18,12.90
2010,07,25,03,19,12.90
2010,07,25,03,20,12.90
2010,07,25,03,21,12.90
2010,07,25,03,22,12.90
2010,07,25,03,23,12.90
2010,07,25,03,24,12.90
2010,07,25,03,25,12.90
2010,07,25,03,26,12.90
2010,07,25,03,27,12.90
2010,07,25,03,28,12.90
2010,07,25,03,29,12.90
2010,07,25,03,30,12.80
2010,07,25,03,31,12.80
2010,07,25,03,32,12.80
2010,07,25,03,33,12.80
2010,07,25,03,34,12.80
2010,07,25,03,35,12.80
2010,07,25,03,36,12.80
2010,07,25,03,37,12.80
2010,07,25,03,38,12.80
2010,07,25,03,39,12.80
2010,07,25,03,40,12.80
2010,07,25,03,41,12.80
2010,07,25,03,42,12.80
2010,07,25,03,43,12.80
2010,07,25,03,44,12.80
2010,07,25,03,45,12.80
2010,07,25,03,46,12.80
2010,07,25,03,47,12.80
2010,07,25,03,48,12.80
2010,07,25,03,49,12.80
2010,07,25,03,50,12.80
2010,07,25,03,51,12.80
2010,07,25,03,52,12.70
2010,07,25,03,53,12.80
2010,07,25,03,54,12.80
2010,07,25,03,55,12.80
2010,07,25,03,56,12.80
2010,07,25,03,57,12.80
2010,07,25,03,58,12.80
2010,07,25,03,59,12.80
2010,07,25,04,00,12.80
2010,07,25,04,01,12.80
2010,07,25,04,02,12.80
2010,07,25,04,03,12.80
2010,07,25,04,04,12.80
2010,07,25,04,05,12.80
2010,07,25,04,06,12.80
2010,07,25,04,07,12.80
2010,07,25,04,08,12.80
2010,07,25,04,09,12.80
2010,07,25,04,10,12.80
2010,07,25,04,11,12.70
2010,07,25,04,12,12.70
2010,07,25,04,13,12.80
2010,07,25,04,14,12.80
2010,07,25,04,15,12.70
2010,07,25,04,16,12.70
2010,07,25,04,17,12.70
2010,07,25,04,18,12.70
2010,07,25,04,19,12.70
2010,07,25,04,20,12.70
2010,07,25,04,21,12.70
2010,07,25,04,22,12.70
2010,07,25,04,23,12.70
2010,07,25,04,24,12.60
2010,07,25,04,25,12.60
2010,07,25,04,26,12.60
2010,07,25,04,27,12.60
2010,07,25,04,28,12.60
2010,07,25,04,29,12.60
2010,07,25,04,30,12.50
2010,07,25,04,31,12.50
2010,07,25,04,32,12.50
2010,07,25,04,33,12.50
2010,07,25,04,34,12.50
2010,07,25,04,35,12.50
2010,07,25,04,36,12.50
2010,07,25,04,37,12.50
2010,07,25,04,38,12.50
2010,07,25,04,39,12.50
2010,07,25,04,40,12.50
2010,07,25,04,41,12.50
2010,07,25,04,42,12.50
2010,07,25,04,43,12.50
2010,07,25,04,44,12.50
2010,07,25,04,45,12.50
2010,07,25,04,46,12.50
2010,07,25,04,47,12.50
2010,07,25,04,48,12.50
2010,07,25,04,49,12.50
2010,07,25,04,50,12.50
2010,07,25,04,51,12.50
2010,07,25,04,52,12.50
2010,07,25,04,53,12.50
2010,07,25,04,54,12.50
2010,07,25,04,55,12.50
2010,07,25,04,56,12.40
2010,07,25,04,57,12.40
2010,07,25,04,58,12.40
2010,07,25,04,59,12.40
2010,07,25,05,00,12.40
2010,07,25,05,01,12.50
2010,07,25,05,02,12.50
2010,07,25,05,03,12.50
2010,07,25,05,04,12.50
2010,07,25,05,05,12.50
2010,07,25,05,06,12.50
2010,07,25,05,07,12.50
2010,07,25,05,08,12.50
2010,07,25,05,09,12.50
2010,07,25,05,10,12.50
2010,07,25,05,11,12.60
2010,07,25,05,12,12.60
2010,07,25,05,13,12.60
2010,07,25,05,14,12.60
2010,07,25,05,15,12.60
2010,07,25,05,16,12.60
2010,07,25,05,17,12.60
2010,07,25,05,18,12.60
2010,07,25,05,19,12.60
2010,07,25,05,20,12.60
2010,07,25,05,21,12.50
2010,07,25,05,22,12.60
2010,07,25,05,23,12.60
2010,07,25,05,24,12.60
2010,07,25,05,25,12.60
2010,07,25,05,26,12.60
2010,07,25,05,27,12.70
2010,07,25,05,28,12.70
2010,07,25,05,29,12.70
2010,07,25,05,30,12.70
2010,07,25,05,31,12.80
2010,07,25,05,32,12.80
2010,07,25,05,33,12.80
2010,07,25,05,34,12.80
2010,07,25,05,35,12.90
2010,07,25,05,36,12.90
2010,07,25,05,37,12.90
2010,07,25,05,38,12.80
2010,07,25,05,39,12.80
2010,07,25,05,40,12.80
2010,07,25,05,41,12.80
2010,07,25,05,42,12.70
2010,07,25,05,43,12.70
2010,07,25,05,44,12.60
2010,07,25,05,45,12.60
2010,07,25,05,46,12.60
2010,07,25,05,47,12.50
2010,07,25,05,48,12.50
2010,07,25,05,49,12.40
2010,07,25,05,50,12.40
2010,07,25,05,51,12.40
2010,07,25,05,52,12.40
2010,07,25,05,53,12.40
2010,07,25,05,54,12.40
2010,07,25,05,55,12.40
2010,07,25,05,56,12.40
2010,07,25,05,57,12.40
2010,07,25,05,58,12.40
2010,07,25,05,59,12.40
2010,07,25,06,00,12.50
2010,07,25,06,01,12.40
2010,07,25,06,02,12.40
2010,07,25,06,03,12.40
2010,07,25,06,04,12.40
2010,07,25,06,05,12.40
2010,07,25,06,06,12.40
2010,07,25,06,07,12.40
2010,07,25,06,08,12.30
2010,07,25,06,09,12.30
2010,07,25,06,10,12.40
2010,07,25,06,11,12.40
2010,07,25,06,12,12.40
2010,07,25,06,13,12.50
2010,07,25,06,14,12.50
2010,07,25,06,15,12.60
2010,07,25,06,16,12.70
2010,07,25,06,17,12.80
2010,07,25,06,18,12.90
2010,07,25,06,19,13.00
2010,07,25,06,20,13.10
2010,07,25,06,21,13.20
2010,07,25,06,22,13.30
2010,07,25,06,23,13.30
2010,07,25,06,24,13.40
2010,07,25,06,25,13.50
2010,07,25,06,26,13.60
2010,07,25,06,27,13.60
2010,07,25,06,28,13.60
2010,07,25,06,29,13.60
2010,07,25,06,30,13.60
2010,07,25,06,31,13.60
2010,07,25,06,32,13.60
2010,07,25,06,33,13.60
2010,07,25,06,34,13.60
2010,07,25,06,35,13.60
2010,07,25,06,36,13.60
2010,07,25,06,37,13.60
2010,07,25,06,38,13.60
2010,07,25,06,39,13.60
2010,07,25,06,40,13.70
2010,07,25,06,41,13.70
2010,07,25,06,42,13.80
2010,07,25,06,43,13.90
2010,07,25,06,44,14.00
2010,07,25,06,45,14.10
2010,07,25,06,46,14.30
2010,07,25,06,47,14.50
2010,07,25,06,48,14.60
2010,07,25,06,49,14.80
2010,07,25,06,50,14.90
2010,07,25,06,51,15.00
2010,07,25,06,52,15.20
2010,07,25,06,53,15.30
2010,07,25,06,54,15.30
2010,07,25,06,55,15.40
2010,07,25,06,56,15.50
2010,07,25,06,57,15.60
2010,07,25,06,58,15.70
2010,07,25,06,59,15.70
2010,07,25,07,00,15.80
2010,07,25,07,01,15.80
2010,07,25,07,02,15.90
2010,07,25,07,03,15.90
2010,07,25,07,04,16.00
2010,07,25,07,05,16.10
2010,07,25,07,06,16.10
2010,07,25,07,07,16.20
2010,07,25,07,08,16.20
2010,07,25,07,09,16.30
2010,07,25,07,10,16.40
2010,07,25,07,11,16.50
2010,07,25,07,12,16.60
2010,07,25,07,13,16.70
2010,07,25,07,14,16.80
2010,07,25,07,15,16.90
2010,07,25,07,16,17.00
2010,07,25,07,17,17.10
2010,07,25,07,18,17.20
2010,07,25,07,19,17.30
2010,07,25,07,20,17.40
2010,07,25,07,21,17.40
2010,07,25,07,22,17.50
2010,07,25,07,23,17.50
2010,07,25,07,24,17.60
2010,07,25,07,25,17.60
2010,07,25,07,26,17.70
2010,07,25,07,27,17.70
2010,07,25,07,28,17.80
2010,07,25,07,29,17.80
2010,07,25,07,30,17.80
2010,07,25,07,31,17.80
2010,07,25,07,32,17.90
2010,07,25,07,33,17.90
2010,07,25,07,34,18.00
2010,07,25,07,35,18.00
2010,07,25,07,36,18.00
2010,07,25,07,37,18.10
2010,07,25,07,38,18.10
2010,07,25,07,39,18.10
2010,07,25,07,40,18.20
2010,07,25,07,41,18.20
2010,07,25,07,42,18.20
2010,07,25,07,43,18.30
2010,07,25,07,44,18.30
2010,07,25,07,45,18.40
2010,07,25,07,46,18.40
2010,07,25,07,47,18.40
2010,07,25,07,48,18.50
2010,07,25,07,49,18.50
2010,07,25,07,50,18.60
2010,07,25,07,51,18.60
2010,07,25,07,52,18.60
2010,07,25,07,53,18.70
2010,07,25,07,54,18.70
2010,07,25,07,55,18.70
2010,07,25,07,56,18.80
2010,07,25,07,57,18.80
2010,07,25,07,58,18.80
2010,07,25,07,59,18.80
2010,07,25,08,00,18.90
2010,07,25,08,01,18.90
2010,07,25,08,02,18.90
2010,07,25,08,03,18.90
2010,07,25,08,04,18.90
2010,07,25,08,05,18.90
2010,07,25,08,06,18.90
2010,07,25,08,07,18.90
2010,07,25,08,08,18.90
2010,07,25,08,09,19.00
2010,07,25,08,10,19.00
2010,07,25,08,11,19.00
2010,07,25,08,12,19.10
2010,07,25,08,13,19.10
2010,07,25,08,14,19.10
2010,07,25,08,15,19.10
2010,07,25,08,16,19.10
2010,07,25,08,17,19.10
2010,07,25,08,18,19.10
2010,07,25,08,19,19.10
2010,07,25,08,20,19.20
2010,07,25,08,21,19.20
2010,07,25,08,22,19.20
2010,07,25,08,23,19.20
2010,07,25,08,24,19.30
2010,07,25,08,25,19.30
2010,07,25,08,26,19.30
2010,07,25,08,27,19.30
2010,07,25,08,28,19.30
2010,07,25,08,29,19.40
2010,07,25,08,30,19.40
2010,07,25,08,31,19.50
2010,07,25,08,32,19.50
2010,07,25,08,33,19.50
2010,07,25,08,34,19.50
2010,07,25,08,35,19.60
2010,07,25,08,36,19.60
2010,07,25,08,37,19.60
2010,07,25,08,38,19.50
2010,07,25,08,39,19.60
2010,07,25,08,40,19.60
2010,07,25,08,41,19.60
2010,07,25,08,42,19.70
2010,07,25,08,43,19.70
2010,07,25,08,44,19.80
2010,07,25,08,45,19.80
2010,07,25,08,46,19.80
2010,07,25,08,47,19.80
2010,07,25,08,48,19.80
2010,07,25,08,49,19.80
2010,07,25,08,50,19.80
2010,07,25,08,51,19.90
2010,07,25,08,52,19.90
2010,07,25,08,53,19.90
2010,07,25,08,54,19.90
2010,07,25,08,55,19.90
2010,07,25,08,56,19.90
2010,07,25,08,57,19.90
2010,07,25,08,58,20.00
2010,07,25,08,59,20.00
2010,07,25,09,00,20.10
2010,07,25,09,01,20.10
2010,07,25,09,02,20.20
2010,07,25,09,03,20.20
2010,07,25,09,04,20.30
2010,07,25,09,05,20.30
2010,07,25,09,06,20.40
2010,07,25,09,07,20.40
2010,07,25,09,08,20.50
2010,07,25,09,09,20.50
2010,07,25,09,10,20.60
2010,07,25,09,11,20.60
2010,07,25,09,12,20.70
2010,07,25,09,13,20.70
2010,07,25,09,14,20.80
2010,07,25,09,15,20.80
2010,07,25,09,16,20.80
2010,07,25,09,17,20.90
2010,07,25,09,18,20.90
2010,07,25,09,19,20.90
2010,07,25,09,20,21.00
2010,07,25,09,21,21.00
2010,07,25,09,22,21.00
2010,07,25,09,23,21.00
2010,07,25,09,24,21.10
2010,07,25,09,25,21.10
2010,07,25,09,26,21.10
2010,07,25,09,27,21.10
2010,07,25,09,28,21.10
2010,07,25,09,29,21.20
2010,07,25,09,30,21.20
2010,07,25,09,31,21.20
2010,07,25,09,32,21.30
2010,07,25,09,33,21.30
2010,07,25,09,34,21.30
2010,07,25,09,35,21.30
2010,07,25,09,36,21.30
2010,07,25,09,37,21.30
2010,07,25,09,38,21.30
2010,07,25,09,39,21.20
2010,07,25,09,40,21.20
2010,07,25,09,41,21.20
2010,07,25,09,42,21.30
2010,07,25,09,43,21.30
2010,07,25,09,44,21.30
2010,07,25,09,45,21.40
2010,07,25,09,46,21.50
2010,07,25,09,47,21.50
2010,07,25,09,48,21.60
2010,07,25,09,49,21.60
2010,07,25,09,50,21.70
2010,07,25,09,51,21.70
2010,07,25,09,52,21.80
2010,07,25,09,53,21.80
2010,07,25,09,54,21.90
2010,07,25,09,55,22.00
2010,07,25,09,56,22.10
2010,07,25,09,57,22.10
2010,07,25,09,58,22.10
2010,07,25,09,59,22.20
2010,07,25,10,00,22.20
2010,07,25,10,01,22.30
2010,07,25,10,02,22.30
2010,07,25,10,03,22.30
2010,07,25,10,04,22.30
2010,07,25,10,05,22.30
2010,07,25,10,06,22.40
2010,07,25,10,07,22.50
2010,07,25,10,08,22.50
2010,07,25,10,09,22.60
2010,07,25,10,10,22.70
2010,07,25,10,11,22.80
2010,07,25,10,12,22.80
2010,07,25,10,13,22.90
2010,07,25,10,14,23.00
2010,07,25,10,15,23.10
2010,07,25,10,16,23.10
2010,07,25,10,17,23.10
2010,07,25,10,18,23.00
2010,07,25,10,19,23.00
2010,07,25,10,20,23.00
2010,07,25,10,21,23.00
2010,07,25,10,22,23.00
2010,07,25,10,23,23.10
2010,07,25,10,24,23.10
2010,07,25,10,25,23.10
2010,07,25,10,26,23.20
2010,07,25,10,27,23.20
2010,07,25,10,28,23.20
2010,07,25,10,29,23.30
2010,07,25,10,30,23.40
2010,07,25,10,31,23.50
2010,07,25,10,32,23.50
2010,07,25,10,33,23.60
2010,07,25,10,34,23.60
2010,07,25,10,35,23.60
2010,07,25,10,36,23.60
2010,07,25,10,37,23.60
2010,07,25,10,38,23.50
2010,07,25,10,39,23.50
2010,07,25,10,40,23.40
2010,07,25,10,41,23.40
2010,07,25,10,42,23.30
2010,07,25,10,43,23.30
2010,07,25,10,44,23.30
2010,07,25,10,45,23.30
2010,07,25,10,46,23.30
2010,07,25,10,47,23.30
2010,07,25,10,48,23.40
2010,07,25,10,49,23.40
2010,07,25,10,50,23.40
2010,07,25,10,51,23.50
2010,07,25,10,52,23.50
2010,07,25,10,53,23.60
2010,07,25,10,54,23.70
2010,07,25,10,55,23.70
2010,07,25,10,56,23.70
2010,07,25,10,57,23.70
2010,07,25,10,58,23.70
2010,07,25,10,59,23.70
2010,07,25,11,00,23.70
2010,07,25,11,01,23.70
2010,07,25,11,02,23.70
2010,07,25,11,03,23.80
2010,07,25,11,04,23.80
2010,07,25,11,05,23.80
2010,07,25,11,06,23.80
2010,07,25,11,07,23.80
2010,07,25,11,08,23.80
2010,07,25,11,09,23.90
2010,07,25,11,10,24.00
2010,07,25,11,11,24.10
2010,07,25,11,12,24.10
2010,07,25,11,13,24.10
2010,07,25,11,14,24.10
2010,07,25,11,15,24.10
2010,07,25,11,16,24.20
2010,07,25,11,17,24.20
2010,07,25,11,18,24.30
2010,07,25,11,19,24.30
2010,07,25,11,20,24.30
2010,07,25,11,21,24.30
2010,07,25,11,22,24.30
2010,07,25,11,23,24.30
2010,07,25,11,24,24.20
2010,07,25,11,25,24.20
2010,07,25,11,26,24.10
2010,07,25,11,27,24.10
2010,07,25,11,28,24.20
2010,07,25,11,29,24.20
2010,07,25,11,30,24.10
2010,07,25,11,31,24.10
2010,07,25,11,32,24.10
2010,07,25,11,33,24.10
2010,07,25,11,34,24.10
2010,07,25,11,35,24.10
2010,07,25,11,36,24.10
2010,07,25,11,37,24.10
2010,07,25,11,38,24.20
2010,07,25,11,39,24.30
2010,07,25,11,40,24.40
2010,07,25,11,41,24.40
2010,07,25,11,42,24.40
2010,07,25,11,43,24.50
2010,07,25,11,44,24.50
2010,07,25,11,45,24.60
2010,07,25,11,46,24.60
2010,07,25,11,47,24.60
2010,07,25,11,48,24.60
2010,07,25,11,49,24.50
2010,07,25,11,50,24.50
2010,07,25,11,51,24.50
2010,07,25,11,52,24.50
2010,07,25,11,53,24.50
2010,07,25,11,54,24.50
2010,07,25,11,55,24.50
2010,07,25,11,56,24.60
2010,07,25,11,57,24.60
2010,07,25,11,58,24.70
2010,07,25,11,59,24.80
2010,07,25,12,00,24.90
2010,07,25,12,01,24.90
2010,07,25,12,02,25.00
2010,07,25,12,03,25.10
2010,07,25,12,04,25.20
2010,07,25,12,05,25.20
2010,07,25,12,06,25.30
2010,07,25,12,07,25.40
2010,07,25,12,08,25.40
2010,07,25,12,09,25.50
2010,07,25,12,10,25.60
2010,07,25,12,11,25.60
2010,07,25,12,12,25.60
2010,07,25,12,13,25.60
2010,07,25,12,14,25.70
2010,07,25,12,15,25.70
2010,07,25,12,16,25.70
2010,07,25,12,17,25.70
2010,07,25,12,18,25.80
2010,07,25,12,19,25.80
2010,07,25,12,20,25.80
2010,07,25,12,21,25.80
2010,07,25,12,22,25.70
2010,07,25,12,23,25.70
2010,07,25,12,24,25.70
2010,07,25,12,25,25.80
2010,07,25,12,26,25.80
2010,07,25,12,27,25.80
2010,07,25,12,28,25.90
2010,07,25,12,29,25.90
2010,07,25,12,30,25.90
2010,07,25,12,31,25.80
2010,07,25,12,32,25.80
2010,07,25,12,33,25.70
2010,07,25,12,34,25.60
2010,07,25,12,35,25.60
2010,07,25,12,36,25.60
2010,07,25,12,37,25.70
2010,07,25,12,38,25.70
2010,07,25,12,39,25.80
2010,07,25,12,40,25.80
2010,07,25,12,41,25.90
2010,07,25,12,42,25.90
2010,07,25,12,43,25.80
2010,07,25,12,44,25.80
2010,07,25,12,45,25.70
2010,07,25,12,46,25.70
2010,07,25,12,47,25.70
2010,07,25,12,48,25.70
2010,07,25,12,49,25.70
2010,07,25,12,50,25.60
2010,07,25,12,51,25.60
2010,07,25,12,52,25.60
2010,07,25,12,53,25.60
2010,07,25,12,54,25.70
2010,07,25,12,55,25.70
2010,07,25,12,56,25.80
2010,07,25,12,57,25.80
2010,07,25,12,58,25.90
2010,07,25,12,59,25.90
2010,07,25,13,00,25.90
2010,07,25,13,01,26.00
2010,07,25,13,02,26.10
2010,07,25,13,03,26.10
2010,07,25,13,04,26.20
2010,07,25,13,05,26.20
2010,07,25,13,06,26.30
2010,07,25,13,07,26.30
2010,07,25,13,08,26.30
2010,07,25,13,09,26.30
2010,07,25,13,10,26.30
2010,07,25,13,11,26.30
2010,07,25,13,12,26.10
2010,07,25,13,13,26.00
2010,07,25,13,14,25.90
2010,07,25,13,15,25.90
2010,07,25,13,16,25.80
2010,07,25,13,17,25.80
2010,07,25,13,18,25.70
2010,07,25,13,19,25.60
2010,07,25,13,20,25.40
2010,07,25,13,21,25.10
2010,07,25,13,22,24.90
2010,07,25,13,23,24.70
2010,07,25,13,24,24.50
2010,07,25,13,25,24.30
2010,07,25,13,26,24.20
2010,07,25,13,27,24.10
2010,07,25,13,28,24.00
2010,07,25,13,29,23.90
2010,07,25,13,30,23.80
2010,07,25,13,31,23.60
2010,07,25,13,32,23.60
2010,07,25,13,33,23.50
2010,07,25,13,34,23.50
2010,07,25,13,35,23.50
2010,07,25,13,36,23.50
2010,07,25,13,37,23.50
2010,07,25,13,38,23.50
2010,07,25,13,39,23.40
2010,07,25,13,40,23.40
2010,07,25,13,41,23.40
2010,07,25,13,42,23.40
2010,07,25,13,43,23.30
2010,07,25,13,44,23.30
2010,07,25,13,45,23.30
2010,07,25,13,46,23.30
2010,07,25,13,47,23.30
2010,07,25,13,48,23.40
2010,07,25,13,49,23.40
2010,07,25,13,50,23.50
2010,07,25,13,51,23.60
2010,07,25,13,52,23.60
2010,07,25,13,53,23.60
2010,07,25,13,54,23.60
2010,07,25,13,55,23.60
2010,07,25,13,56,23.70
2010,07,25,13,57,23.70
2010,07,25,13,58,23.70
2010,07,25,13,59,23.70
2010,07,25,14,00,23.80
2010,07,25,14,01,23.80
2010,07,25,14,02,23.80
2010,07,25,14,03,23.80
2010,07,25,14,04,23.90
2010,07,25,14,05,23.90
2010,07,25,14,06,24.00
2010,07,25,14,07,24.10
2010,07,25,14,08,24.10
2010,07,25,14,09,24.10
2010,07,25,14,10,24.10
2010,07,25,14,11,24.10
2010,07,25,14,12,24.20
2010,07,25,14,13,24.20
2010,07,25,14,14,24.20
2010,07,25,14,15,24.20
2010,07,25,14,16,24.10
2010,07,25,14,17,24.10
2010,07,25,14,18,24.10
2010,07,25,14,19,24.00
2010,07,25,14,20,23.90
2010,07,25,14,21,23.90
2010,07,25,14,22,23.90
2010,07,25,14,23,24.00
2010,07,25,14,24,24.00
2010,07,25,14,25,24.00
2010,07,25,14,26,24.00
2010,07,25,14,27,24.00
2010,07,25,14,28,24.00
2010,07,25,14,29,24.00
2010,07,25,14,30,24.00
2010,07,25,14,31,23.90
2010,07,25,14,32,23.90
2010,07,25,14,33,23.90
2010,07,25,14,34,23.90
2010,07,25,14,35,23.80
2010,07,25,14,36,23.80
2010,07,25,14,37,23.80
2010,07,25,14,38,23.80
2010,07,25,14,39,23.90
2010,07,25,14,40,23.90
2010,07,25,14,41,23.90
2010,07,25,14,42,23.80
2010,07,25,14,43,23.80
2010,07,25,14,44,23.80
2010,07,25,14,45,23.80
2010,07,25,14,46,23.80
2010,07,25,14,47,23.80
2010,07,25,14,48,23.80
2010,07,25,14,49,23.80
2010,07,25,14,50,23.80
2010,07,25,14,51,23.80
2010,07,25,14,52,23.90
2010,07,25,14,53,23.90
2010,07,25,14,54,23.90
2010,07,25,14,55,23.90
2010,07,25,14,56,23.90
2010,07,25,14,57,24.00
2010,07,25,14,58,23.90
2010,07,25,14,59,23.90
2010,07,25,15,00,23.80
2010,07,25,15,01,23.80
2010,07,25,15,02,23.90
2010,07,25,15,03,23.90
2010,07,25,15,04,24.00
2010,07,25,15,05,24.10
2010,07,25,15,06,24.20
2010,07,25,15,07,24.20
2010,07,25,15,08,24.20
2010,07,25,15,09,24.20
2010,07,25,15,10,24.20
2010,07,25,15,11,24.20
2010,07,25,15,12,24.30
2010,07,25,15,13,24.30
2010,07,25,15,14,24.30
2010,07,25,15,15,24.30
2010,07,25,15,16,24.30
2010,07,25,15,17,24.30
2010,07,25,15,18,24.40
2010,07,25,15,19,24.50
2010,07,25,15,20,24.50
2010,07,25,15,21,24.60
2010,07,25,15,22,24.60
2010,07,25,15,23,24.70
2010,07,25,15,24,24.70
2010,07,25,15,25,24.80
2010,07,25,15,26,24.80
2010,07,25,15,27,24.80
2010,07,25,15,28,24.80
2010,07,25,15,29,24.80
2010,07,25,15,30,24.80
2010,07,25,15,31,24.80
2010,07,25,15,32,24.80
2010,07,25,15,33,24.80
2010,07,25,15,34,24.80
2010,07,25,15,35,24.80
2010,07,25,15,36,24.70
2010,07,25,15,37,24.70
2010,07,25,15,38,24.70
2010,07,25,15,39,24.60
2010,07,25,15,40,24.60
2010,07,25,15,41,24.50
2010,07,25,15,42,24.50
2010,07,25,15,43,24.40
2010,07,25,15,44,24.30
2010,07,25,15,45,24.30
2010,07,25,15,46,24.20
2010,07,25,15,47,24.10
2010,07,25,15,48,24.10
2010,07,25,15,49,24.00
2010,07,25,15,50,24.10
2010,07,25,15,51,24.10
2010,07,25,15,52,24.20
2010,07,25,15,53,24.20
2010,07,25,15,54,24.30
2010,07,25,15,55,24.40
2010,07,25,15,56,24.50
2010,07,25,15,57,24.70
2010,07,25,15,58,24.80
2010,07,25,15,59,24.80
2010,07,25,16,00,24.90
2010,07,25,16,01,25.00
2010,07,25,16,02,25.00
2010,07,25,16,03,25.10
2010,07,25,16,04,25.10
2010,07,25,16,05,25.10
2010,07,25,16,06,25.20
2010,07,25,16,07,25.20
2010,07,25,16,08,25.30
2010,07,25,16,09,25.30
2010,07,25,16,10,25.30
2010,07,25,16,11,25.20
2010,07,25,16,12,25.20
2010,07,25,16,13,25.20
2010,07,25,16,14,25.30
2010,07,25,16,15,25.30
2010,07,25,16,16,25.30
2010,07,25,16,17,25.20
2010,07,25,16,18,25.30
2010,07,25,16,19,25.30
2010,07,25,16,20,25.30
2010,07,25,16,21,25.30
2010,07,25,16,22,25.40
2010,07,25,16,23,25.40
2010,07,25,16,24,25.50
2010,07,25,16,25,25.50
2010,07,25,16,26,25.60
2010,07,25,16,27,25.70
2010,07,25,16,28,25.80
2010,07,25,16,29,25.90
2010,07,25,16,30,26.00
2010,07,25,16,31,26.00
2010,07,25,16,32,26.00
2010,07,25,16,33,26.00
2010,07,25,16,34,26.00
2010,07,25,16,35,26.00
2010,07,25,16,36,26.10
2010,07,25,16,37,26.10
2010,07,25,16,38,26.10
2010,07,25,16,39,26.10
2010,07,25,16,40,26.10
2010,07,25,16,41,26.20
2010,07,25,16,42,26.20
2010,07,25,16,43,26.20
2010,07,25,16,44,26.20
2010,07,25,16,45,26.20
2010,07,25,16,46,26.20
2010,07,25,16,47,26.30
2010,07,25,16,48,26.30
2010,07,25,16,49,26.30
2010,07,25,16,50,26.30
2010,07,25,16,51,26.30
2010,07,25,16,52,26.30
2010,07,25,16,53,26.40
2010,07,25,16,54,26.40
2010,07,25,16,55,26.40
2010,07,25,16,56,26.30
2010,07,25,16,57,26.30
2010,07,25,16,58,26.20
2010,07,25,16,59,26.20
2010,07,25,17,00,26.20
2010,07,25,17,01,26.20
2010,07,25,17,02,26.20
2010,07,25,17,03,26.20
2010,07,25,17,04,26.20
2010,07,25,17,05,26.20
2010,07,25,17,06,26.20
2010,07,25,17,07,26.20
2010,07,25,17,08,26.20
2010,07,25,17,09,26.30
2010,07,25,17,10,26.30
2010,07,25,17,11,26.30
2010,07,25,17,12,26.40
2010,07,25,17,13,26.40
2010,07,25,17,14,26.40
2010,07,25,17,15,26.40
2010,07,25,17,16,26.50
2010,07,25,17,17,26.40
2010,07,25,17,18,26.40
2010,07,25,17,19,26.40